Regional Weather Roundup
Issued by NWS

Home | Current Version | Previous Version | Graphics & Text | Print | Product List | Glossary Off
Versions: 1 2 3 4 5 6 7 8 9 10 11 12 13 14 15 16 17 18 19 20 21 22 23 24 25 26 27 28 29 30 31 32 33 34 35 36 37 38 39 40 41 42 43 44 45 46 47 48 49 50

000
ASUS43 KDTX 211710
RWRMI
MICHIGAN HOURLY REGIONAL WEATHER ROUNDUP
NATIONAL WEATHER SERVICE DETROIT/PONTIAC MI
1200 PM EST TUE NOV 21 2017

NOTE: "FAIR" INDICATES FEW OR NO CLOUDS BELOW 12,000 FEET WITH NO
SIGNIFICANT WEATHER AND/OR OBSTRUCTION TO VISIBILITY.

MIZ047>049-052>055-059>063-066>070-074>076-081>083-211800-
SOUTHEAST LOWER MICHIGAN

CITY           SKY/WX    TMP DP  RH WIND       PRES   REMARKS
ADRIAN         CLOUDY    46  31  55 W17G31    29.77S
ALMA           CLOUDY    48  35  60 W14G22    29.67R
ANN ARBOR      MOSUNNY   47  32  56 S20       29.73S
BAD AXE        CLOUDY    47  32  56 SW20G30   29.64R
CARO           PTSUNNY   50  34  55 W20G26    29.65S
DETROIT CITY   SUNNY    N/A N/A N/A SW20G30   29.72F
DETROIT        PTSUNNY   50  31  48 SW22G31   29.74F
FLINT          SUNNY     49  32  52 SW20G29   29.69R
GROSSE ILE     SUNNY     50  32  50 W21G29    29.73F
HILLSDALE      PTSUNNY   46  30  53 SW20G30   29.74S
HOWELL         MOSUNNY   48  32  54 SW17G25   29.71R

CITY           SKY/WX    TMP DP  RH WIND       PRES   REMARKS
JACKSON        MOSUNNY   49  31  49 SW17      29.73R
LAMBERTVILLE   SUNNY     51  31  45 SW15G26   29.76F
LANSING        MOSUNNY   50  34  54 W24G31    29.71R
LAPEER         FAIR      49  31  49 W20G26    29.68R
MASON          SUNNY     49  32  51 W12G23    29.72R
MONROE         SUNNY     51  31  48 W24G37    29.74F
MT. CLEMENS    PTSUNNY   50  32  51 SW20G28   29.69F
PONTIAC        PTSUNNY   47  31  53 SW15G23   29.69R
PORT HOPE        N/A     48  33  56 SW13G24   29.60R
PORT HURON     SUNNY     48  28  46 SW13G22   29.69S
TRI CITIES     CLOUDY    48  38  68 SW21G28   29.65R
MIDLAND        FAIR      50  33  51 W17G25    29.63R
TROY           SUNNY     50  29  45 SW17G26   29.72S
SAGINAW HB     CLOUDY    46  36  66 W20G26    29.64S
$$
MIZ043>046-050>051-056>058-064>065-071>073-077>080-211800-
SOUTHWEST LOWER MICHIGAN

CITY           SKY/WX    TMP DP  RH WIND       PRES   REMARKS
BATTLE CREEK   MOSUNNY   50  33  52 W20G28    29.75R
BENTON HARBOR  LGT RAIN  44  38  79 W18G29    29.81R
BIG RAPIDS     CLOUDY    43  24  46 W21G28    29.65R
COLDWATER      MOSUNNY   47  30  52 W15G23    29.77R
FREMONT        CLOUDY    43  24  46 W17G26    29.71R
HOLLAND        LGT RAIN  43  34  70 W18G30    29.77R
GRAND RAPIDS   CLOUDY    46  40  79 W16       29.71R
IONIA          CLOUDY    46  35  65 SW21G33   29.69S
KALAMAZOO      MOSUNNY   49  31  49 W20G26    29.77R
LUDINGTON      CLOUDY    39  24  53 NW13G24   29.72R WCI  32
MARSHALL       SUNNY     50  32  50 W15G21    29.74R
MOUNT PLEASANT CLOUDY    47  32  56 W21G30    29.65R
MUSKEGON       CLOUDY    44  25  47 W15G24    29.74R
SOUTH HAVEN    LGT RAIN  44  37  76 W12G28    29.79R
$$
MIZ016>042-211800-
NORTHERN LOWER MICHIGAN

CITY           SKY/WX    TMP DP  RH WIND       PRES   REMARKS
ALPENA         PTSUNNY   46  26  45 W14G23    29.56R
BEAVER ISLAND  CLOUDY    36  22  57 W15G25    29.65R WCI  26
BELLAIRE       CLOUDY    41  28  59 W10G22    29.64R
CADILLAC       CLOUDY    40  26  57 W12G20    29.64R WCI  33
CHARLEVOIX     CLOUDY    38  27  65 W23G31    29.66R WCI  27
FRANKFORT      CLOUDY    40  24  53 NW17G25   29.69R WCI  31
GAYLORD        CLOUDY    39  23  52 W13G25    29.58R WCI  31
GRAYLING       CLOUDY    41  23  49 W18G24    29.61R
HARBOR SPRINGS CLOUDY    37  26  62 NW21      29.60R WCI  27
MANISTEE       CLOUDY    40  25  55 W20G30    29.70R WCI  30
OSCODA         CLOUDY    49  32  51 W16G26    29.56R
PELLSTON       CLOUDY    37  25  61 NW20G33   29.60R WCI  27
ROGERS CITY    CLOUDY    42  25  51 NW16G23   29.57R
TRAVERSE CITY  CLOUDY    42  24  49 W14G26    29.65R
$$
MIZ007>008-015-211800-
EASTERN UPPER MICHIGAN

CITY           SKY/WX    TMP DP  RH WIND       PRES   REMARKS
KINROSS        CLOUDY    34  22  61 W17G31    29.56R WCI  23
MACKINAC ISLAN CLOUDY    37  21  53 W24G35    29.59R WCI  25
NEWBERRY       CLOUDY    31  24  74 W20G29    29.58R WCI  19
S. S. MARIE    CLOUDY    35  25  66 W20G32    29.53R WCI  24
MUNISING         N/A     31  25  78 NW24G36   29.65R WCI  17
$$
MIZ004>006-011>014-085-211800-
CENTRAL UPPER MICHIGAN

CITY           SKY/WX    TMP DP  RH WIND       PRES   REMARKS
MANISTIQUE     CLOUDY    34  10  37 W15G22    29.64R WCI  24
ESCANABA       CLOUDY    33  16  49 W24G31    29.69R WCI  20
MENOMINEE      CLOUDY    33  15  47 NW14G26   29.74R WCI  23
SAWYER-GWINN   LGT SNOW  27  21  80 NW24G33   29.66R WCI  12
$$
MIZ001>003-009>011-084-211800-
WESTERN UPPER MICHIGAN

CITY           SKY/WX    TMP DP  RH WIND       PRES   REMARKS
IRON MOUNTAIN  CLOUDY    29  13  51 NW24G31   29.71R WCI  15
HOUGHTON       SNOW      22  15  75 NW24G33   29.73R VSB 1/2 WCI   5
COPPER HARBOR    N/A     26  18  71 N36G45    29.69R WCI   8
IRONWOOD       LGT SNOW  22  16  78 NW23G32   29.85R WCI   6
$$

ABBREVIATIONS USED IN REMARKS
   TC - TEMPERATURE IN CELSIUS
  WCI - WIND CHILL INDEX
   HX - HEAT INDEX
  VSB - VISIBILITY





USA.gov is the U.S. government's official web portal to all federal, state and local government web resources and services.